Regional Weather Roundup
Issued by NWS Midland/Odessa, TX

Skip options and go directly to product.
Home | Oldest Version | Previous Version | Current Version | All | Text Only | Save Text | Print | Product List | Glossary Off

Skip product version selection by date and time.   

792
ASUS44 KMAF 200801
RWRMAF
MIDLAND AREA WEATHER ROUNDUP
NATIONAL WEATHER SERVICE MIDLAND TX
200 AM CST SAT DEC 20 2014

...IN SOUTHWEST TEXAS AND SOUTHEAST NEW MEXICO...

CITY           SKY/WX    TMP DP  RH WIND       PRES   REMARKS
ALPINE         CLEAR     32  27  80 SW9       30.22S WCI  24
ANDREWS        FOG       34  34 100 SE3       30.16F VSB 1/4
ARTESIA        CLEAR     32  27  80 W8        30.14S WCI  25
BIG SPRING     CLEAR     33  31  91 CALM      30.19F
CARLSBAD       CLEAR     35  26  69 E3        30.12S
DRYDEN           N/A     45  40  82 N5        30.15R
FORT STOCKTON  CLEAR     37  31  78 SW6       30.15S WCI  32
GUAD PASS      NOT AVBL
HOBBS          FOG       36  36 100 SE7       30.16S VSB<1/4 WCI  30
MARFA          CLEAR     25  19  80 N5        30.18S WCI  19
MIDLAND AIRPK  CLEAR     36  36 100 CALM      30.17F FOG
MIDLAND INTL   CLEAR     34  32  92 E3        30.15F FOG
ODESSA         CLEAR     35  33  92 SE5       30.16F FOG     WCI  31
PECOS          CLEAR     35  29  79 CALM      30.16S
PRESIDIO       FAIR      45  31  57 CALM      30.14R
SEMINOLE       CLOUDY    35  35  99 CALM      30.17F FOG
SNYDER         CLOUDY    42  37  82 S3        30.19S
WINK           CLEAR     34  30  85 E5        30.14F WCI  30
$$
...OTHER STATIONS IN TEXAS...

CITY           SKY/WX    TMP DP  RH WIND       PRES   REMARKS
ABILENE        CLOUDY    45  39  79 CALM      30.19F
AMARILLO       CLOUDY    36  33  89 SW10      30.13S WCI  28
AUSTIN         CLOUDY    50  45  83 N12       30.18S
BROWNSVILLE    CLOUDY    62  57  83 NW6       30.09S
CORPUS CHRISTI CLOUDY    55  51  86 N15       30.12S
DALLAS FTW     CLOUDY    46  42  86 N9        30.19F
DEL RIO        CLOUDY    55  50  83 E7        30.13F
EL PASO        CLEAR     38  28  67 CALM      30.15F
HOUSTON INT    CLOUDY    52  50  93 N10       30.14S
LUBBOCK        CLOUDY    38  36  92 S9        30.15F WCI  31
SAN ANGELO     CLOUDY    43  39  86 S5        30.18R
SAN ANTONIO    CLOUDY    49  44  83 N10       30.17F
WACO           CLOUDY    48  45  89 N8        30.20R
WICHITA FALLS  NOT AVBL
$$
...OTHER LOCATIONS IN NEW MEXICO...

CITY           SKY/WX    TMP DP  RH WIND       PRES   REMARKS
ALAMAGORDO     CLEAR     30  27  86 E6        30.16F WCI  24
ALBUQUERQUE    PTCLDY    32  24  72 N5        30.18F WCI  27
CANNON AFB     FRZ DRZL  31  31  99 S6        30.11S FOG     WCI  26
CLOVIS         CLOUDY    32  30  93 S13       30.11F VSB 1   WCI  22
HOLLOMAN AFB   CLEAR     29  25  84 CALM      30.15F
ROSWELL        CLEAR     28  20  71 W5        30.12F WCI  23
RUIDOSO        PTCLDY    28  16  59 W6        30.15F WCI  22
SANTA FE       CLEAR     27  18  69 N13       30.14F WCI  16
TRUTH OR CONSE CLEAR     31  23  72 NW8       30.17F WCI  23
TUCUMCARI      CLEAR     26  23  88 SE3       30.06F
$$

USA.gov is the U.S. government's official web portal to all federal, state and local government web resources and services.